Time,TemperatureF,DewpointF,PressureIn,WindDirection,WindDirectionDegrees,WindSpeedMPH,WindSpeedGustMPH,Humidity,HourlyPrecipIn,Conditions,Clouds,dailyrainin,SolarRadiationWatts/m^2,SoftwareType,DateUTC
2013-04-07 00:12:00,43.0,40.0,-100.00,NNE,20,1.0,2.0,90,-99.99,,,0.01,0.000000,,2013-04-07 07:12:00,
2013-04-07 01:12:00,42.0,41.0,-100.00,NNW,327,2.0,4.0,95,-99.99,,,0.02,0.000000,,2013-04-07 08:12:00,
2013-04-07 02:12:00,42.0,42.0,-100.00,NNW,344,5.0,8.0,97,-99.99,,,0.02,0.000000,,2013-04-07 09:12:00,
2013-04-07 03:13:00,42.0,42.0,-100.00,NW,325,5.0,11.0,98,-99.99,,,0.02,0.000000,,2013-04-07 10:13:00,
2013-04-07 04:12:00,41.0,41.0,-100.00,North,354,6.0,11.0,98,-99.99,,,0.02,0.000000,,2013-04-07 11:12:00,
2013-04-07 05:12:00,40.0,39.0,-100.00,SE,127,2.0,4.0,98,-99.99,,,0.02,0.000000,,2013-04-07 12:12:00,
2013-04-07 06:13:00,40.0,39.0,-100.00,WNW,289,2.0,3.0,98,-99.99,,,0.02,0.000000,,2013-04-07 13:13:00,
2013-04-07 07:12:00,40.0,39.0,-100.00,ENE,69,1.0,3.0,98,-99.99,,,0.02,0.000000,,2013-04-07 14:12:00,
2013-04-07 08:12:00,42.0,41.0,-100.00,ENE,64,3.0,8.0,96,-99.99,,,0.02,51.250000,,2013-04-07 15:12:00,
2013-04-07 09:13:00,49.0,37.0,-100.00,WSW,245,11.0,31.0,64,-99.99,,,0.02,93.209999,,2013-04-07 16:13:00,
2013-04-07 10:13:00,48.0,40.0,-100.00,SSW,200,7.0,16.0,74,-99.99,,,0.02,188.389999,,2013-04-07 17:13:00,
2013-04-07 12:12:00,50.0,40.0,-100.00,SSW,196,6.0,13.0,68,-99.99,,,0.02,373.299988,,2013-04-07 19:12:00,
2013-04-07 13:13:00,48.0,42.0,-100.00,WNW,302,4.0,12.0,79,-99.99,,,0.02,300.079987,,2013-04-07 20:13:00,
2013-04-07 14:13:00,49.0,40.0,-100.00,ESE,104,6.0,13.0,69,-99.99,,,0.02,202.570007,,2013-04-07 21:13:00,
2013-04-07 15:13:00,46.0,40.0,-100.00,South,191,7.0,14.0,78,-99.99,,,0.02,142.490005,,2013-04-07 22:13:00,
2013-04-07 16:12:00,46.0,39.0,-100.00,SW,220,5.0,12.0,75,-99.99,,,0.02,38.820000,,2013-04-07 23:12:00,
2013-04-07 17:12:00,45.0,39.0,-100.00,SSW,199,6.0,15.0,80,-99.99,,,0.02,258.589996,,2013-04-08 00:12:00,
2013-04-07 18:12:00,48.0,39.0,-100.00,SW,231,4.0,11.0,71,-99.99,,,0.02,173.050003,,2013-04-08 01:12:00,
2013-04-07 19:12:00,45.0,38.0,-100.00,SSW,207,7.0,17.0,75,-99.99,,,0.02,127.139999,,2013-04-08 02:12:00,
2013-04-07 20:14:00,44.0,38.0,-100.00,WNW,301,3.0,6.0,80,-99.99,,,0.02,18.600000,,2013-04-08 03:14:00,
2013-04-07 21:12:00,42.0,39.0,-100.00,NW,312,3.0,8.0,89,-99.99,,,0.02,0.000000,,2013-04-08 04:12:00,
2013-04-07 22:12:00,40.0,37.0,-100.00,East,89,3.0,4.0,87,-99.99,,,0.02,0.000000,,2013-04-08 05:12:00,
2013-04-07 23:12:00,38.0,37.0,-100.00,SE,139,2.0,3.0,94,-99.99,,,0.02,0.000000,,2013-04-08 06:12:00,